Taylorville, IL

10:42 PM CDT on July 21, 2017 (GMT -0500)
Taylorville Municipal

Weather History for KTAZ - April, 2014

Change the Weather History Date:

Sunday, April 20, 2014

  Actual Average (KSPI) Record (KSPI)
Temperature  
Mean Temperature 64 °F -  
Max Temperature 77 °F 67 °F 89 °F (1936)
Min Temperature 50 °F 46 °F 28 °F (1956)
Degree Days  
Heating Degree Days 2    
Growing Degree Days 14 (Base 50)    
Moisture  
Dew Point 41 °F    
Average Humidity 45    
Maximum Humidity 62    
Minimum Humidity 28    
Precipitation  
Precipitation 0.00 in - - ()
Sea Level Pressure  
Sea Level Pressure 30.15 in    
Wind  
Wind Speed 8 mph (SSE)    
Max Wind Speed 14 mph    
Max Gust Speed 20 mph    
Visibility 10 miles    
Events      
Averages and records for this station are not official NWS values.
T = Trace of Precipitation, MM = Missing Value Source: NWS Daily Summary

Daily Weather History Graph

Daily Weather History Graph

Search for Another Location

Airport or City:

Trip Planner

Search our weather history database for the weather conditions in past years. The results will help you decide how hot, cold, wet, or windy it might be!

Date:

Astronomy

Apr. 20, 2014 Rise Set
Actual Time 6:12 AM CDT 7:40 PM CDT
Civil Twilight 5:44 AM CDT 8:08 PM CDT
Nautical Twilight 5:10 AM CDT 8:42 PM CDT
Astronomical Twilight 4:35 AM CDT 9:18 PM CDT
Moon 12:19 AM CDT (4/20) 10:33 AM CDT (4/20)
Length of Visible Light 14h 23m
Length of Day
13h 27m
Waning Gibbous, 68% of the Moon is Illuminated
Apr 20
Waning Gibbous
Apr 22
Last Quarter
Apr 29
New
May 6
First Quarter
May 14
Full

Hourly Weather History & Observations

Time (CDT) Temp. Dew Point Humidity Pressure Visibility Wind Dir Wind Speed Gust Speed Precip Events Conditions
12:15 AM 55.4 °F 37.4 °F 51% 30.20 in 10.0 mi ESE 6.9 mph - N/A   Clear
12:35 AM 53.6 °F 37.4 °F 54% 30.20 in 10.0 mi ESE 5.8 mph - N/A   Clear
12:55 AM 53.6 °F 37.4 °F 54% 30.20 in 10.0 mi East 6.9 mph - N/A   Clear
1:15 AM 53.6 °F 37.4 °F 54% 30.19 in 10.0 mi ESE 8.1 mph - N/A   Clear
1:35 AM 53.6 °F 37.4 °F 54% 30.20 in 10.0 mi ESE 6.9 mph - N/A   Clear
1:55 AM 53.6 °F 37.4 °F 54% 30.20 in 10.0 mi ESE 8.1 mph - N/A   Clear
2:15 AM 53.6 °F 37.4 °F 54% 30.19 in 10.0 mi ESE 9.2 mph - N/A   Clear
2:35 AM 53.6 °F 37.4 °F 54% 30.19 in 10.0 mi ESE 8.1 mph - N/A   Clear
2:55 AM 53.6 °F 37.4 °F 54% 30.20 in 10.0 mi ESE 5.8 mph - N/A   Clear
3:15 AM 51.8 °F 37.4 °F 58% 30.20 in 10.0 mi SE 6.9 mph - N/A   Clear
3:35 AM 51.8 °F 37.4 °F 58% 30.20 in 10.0 mi SE 6.9 mph - N/A   Clear
3:55 AM 51.8 °F 37.4 °F 58% 30.20 in 10.0 mi SE 6.9 mph - N/A   Clear
4:15 AM 51.8 °F 37.4 °F 58% 30.20 in 10.0 mi SE 6.9 mph - N/A   Clear
4:35 AM 51.8 °F 37.4 °F 58% 30.21 in 10.0 mi SE 5.8 mph - N/A   Clear
4:55 AM 51.8 °F 37.4 °F 58% 30.20 in 10.0 mi SE 8.1 mph - N/A   Clear
5:15 AM 51.8 °F 37.4 °F 58% 30.20 in 10.0 mi SE 8.1 mph - N/A   Clear
5:35 AM 51.8 °F 37.4 °F 58% 30.20 in 10.0 mi SE 8.1 mph - N/A   Clear
5:55 AM 51.8 °F 37.4 °F 58% 30.20 in 10.0 mi SE 8.1 mph - N/A   Clear
6:15 AM 50.0 °F 37.4 °F 62% 30.21 in 10.0 mi SE 6.9 mph - N/A   Clear
6:35 AM 50.0 °F 37.4 °F 62% 30.21 in 10.0 mi SE 6.9 mph - N/A   Clear
6:55 AM 50.0 °F 37.4 °F 62% 30.22 in 10.0 mi SE 8.1 mph - N/A   Clear
7:15 AM 50.0 °F 37.4 °F 62% 30.22 in 10.0 mi SE 8.1 mph - N/A   Clear
7:35 AM 53.6 °F 39.2 °F 58% 30.22 in 10.0 mi SE 9.2 mph - N/A   Clear
7:55 AM 55.4 °F 39.2 °F 54% 30.22 in 10.0 mi SE 9.2 mph - N/A   Clear
8:15 AM 57.2 °F 41.0 °F 55% 30.22 in 10.0 mi SSE 11.5 mph - N/A   Clear
8:35 AM 59.0 °F 41.0 °F 51% 30.21 in 10.0 mi SSE 10.4 mph - N/A   Clear
8:55 AM 60.8 °F 41.0 °F 48% 30.21 in 10.0 mi SSE 13.8 mph - N/A   Clear
9:15 AM 62.6 °F 41.0 °F 45% 30.21 in 10.0 mi SSE 11.5 mph - N/A   Clear
9:35 AM 64.4 °F 41.0 °F 42% 30.21 in 10.0 mi South 11.5 mph 16.1 mph N/A   Clear
9:55 AM 66.2 °F 41.0 °F 40% 30.21 in 10.0 mi South 11.5 mph - N/A   Clear
10:15 AM 68.0 °F 41.0 °F 37% 30.21 in 10.0 mi South 12.7 mph - N/A   Clear
10:35 AM 68.0 °F 42.8 °F 40% 30.21 in 10.0 mi SSW 13.8 mph - N/A   Clear
10:55 AM 69.8 °F 42.8 °F 38% 30.20 in 10.0 mi South 10.4 mph 16.1 mph N/A   Clear
11:15 AM 71.6 °F 42.8 °F 35% 30.20 in 10.0 mi South 11.5 mph - N/A   Clear
11:35 AM 71.6 °F 42.8 °F 35% 30.19 in 10.0 mi SSW 11.5 mph 17.3 mph N/A   Clear
11:55 AM 71.6 °F 42.8 °F 35% 30.19 in 10.0 mi South 13.8 mph 19.6 mph N/A   Clear
12:15 PM 73.4 °F 42.8 °F 33% 30.18 in 10.0 mi South 11.5 mph 17.3 mph N/A   Clear
12:35 PM 73.4 °F 42.8 °F 33% 30.16 in 10.0 mi SSW 8.1 mph - N/A   Clear
12:55 PM 73.4 °F 41.0 °F 31% 30.16 in 10.0 mi South 12.7 mph 17.3 mph N/A   Clear
1:15 PM 73.4 °F 42.8 °F 33% 30.15 in 10.0 mi South 6.9 mph - N/A   Clear
1:35 PM 73.4 °F 41.0 °F 31% 30.15 in 10.0 mi SSW 5.8 mph 16.1 mph N/A   Clear
1:55 PM 75.2 °F 42.8 °F 31% 30.14 in 10.0 mi SSW 13.8 mph 17.3 mph N/A   Clear
2:15 PM 75.2 °F 41.0 °F 29% 30.14 in 10.0 mi SSW 8.1 mph - N/A   Clear
2:35 PM 75.2 °F 41.0 °F 29% 30.13 in 10.0 mi SSW 8.1 mph - N/A   Clear
2:55 PM 75.2 °F 41.0 °F 29% 30.12 in 10.0 mi South 5.8 mph - N/A   Clear
3:15 PM 75.2 °F 42.8 °F 31% 30.12 in 10.0 mi South 8.1 mph - N/A   Clear
3:35 PM 77.0 °F 41.0 °F 28% 30.11 in 10.0 mi SSW 9.2 mph - N/A   Clear
3:55 PM 77.0 °F 41.0 °F 28% 30.10 in 10.0 mi South 8.1 mph - N/A   Clear
4:15 PM 77.0 °F 41.0 °F 28% 30.09 in 10.0 mi South 9.2 mph 17.3 mph N/A   Clear
4:35 PM 77.0 °F 42.8 °F 29% 30.09 in 10.0 mi South 12.7 mph - N/A   Clear
4:55 PM 77.0 °F 42.8 °F 29% 30.09 in 10.0 mi SSW 9.2 mph 16.1 mph N/A   Clear
5:15 PM 77.0 °F 42.8 °F 29% 30.09 in 10.0 mi SSE 10.4 mph - N/A   Clear
5:35 PM 75.2 °F 42.8 °F 31% 30.09 in 10.0 mi SSW 11.5 mph - N/A   Clear
5:55 PM 75.2 °F 42.8 °F 31% 30.09 in 10.0 mi South 10.4 mph - N/A   Clear
6:15 PM 73.4 °F 42.8 °F 33% 30.08 in 10.0 mi South 9.2 mph - N/A   Clear
6:35 PM 73.4 °F 42.8 °F 33% 30.08 in 10.0 mi South 8.1 mph - N/A   Clear
6:55 PM 71.6 °F 44.6 °F 38% 30.08 in 10.0 mi South 8.1 mph - N/A   Clear
7:15 PM 69.8 °F 44.6 °F 40% 30.07 in 10.0 mi SSE 8.1 mph - N/A   Clear
7:35 PM 68.0 °F 42.8 °F 40% 30.07 in 10.0 mi SSE 6.9 mph - N/A   Clear
7:55 PM 66.2 °F 42.8 °F 43% 30.07 in 10.0 mi SSE 6.9 mph - N/A   Clear
8:15 PM 64.4 °F 42.8 °F 45% 30.07 in 10.0 mi SSE 6.9 mph - N/A   Clear
8:35 PM 64.4 °F 42.8 °F 45% 30.07 in 10.0 mi SSE 5.8 mph - N/A   Clear
8:55 PM 64.4 °F 42.8 °F 45% 30.07 in 10.0 mi SSE 5.8 mph - N/A   Clear
9:15 PM 62.6 °F 42.8 °F 48% 30.07 in 10.0 mi SE 5.8 mph - N/A   Clear
9:35 PM 62.6 °F 42.8 °F 48% 30.07 in 10.0 mi SE 6.9 mph - N/A   Clear
9:55 PM 62.6 °F 42.8 °F 48% 30.07 in 10.0 mi SE 6.9 mph - N/A   Clear
10:15 PM 60.8 °F 42.8 °F 52% 30.06 in 10.0 mi SSE 6.9 mph - N/A   Clear
10:35 PM 60.8 °F 42.8 °F 52% 30.06 in 10.0 mi SSE 8.1 mph - N/A   Clear
10:55 PM 60.8 °F 42.8 °F 52% 30.06 in 10.0 mi SSE 8.1 mph - N/A   Clear
11:15 PM 62.6 °F 42.8 °F 48% 30.05 in 10.0 mi SSE 9.2 mph - N/A   Clear
11:35 PM 62.6 °F 42.8 °F 48% 30.05 in 10.0 mi SSE 8.1 mph - N/A   Clear
11:55 PM 60.8 °F 44.6 °F 55% 30.05 in 10.0 mi SSE 8.1 mph - N/A   Clear